Stations météo

Publicité
Lille, France (7015): Température de l'air & dewpoint: 18.10.2018 01:00:00 - 24.10.2018 01:00:00 (CEST)Lille, France (7015): Température de l'air 5cm: 18.10.2018 01:00:00 - 24.10.2018 01:00:00 (CEST)Lille, France (7015): Température de l'air -20cm & Température de l'air -100cm: 18.10.2018 01:00:00 - 24.10.2018 01:00:00 (CEST)Lille, France (7015): Vitesse du vent & gusts: 18.10.2018 01:00:00 - 24.10.2018 01:00:00 (CEST)Lille, France (7015): Direction du vent: 18.10.2018 01:00:00 - 24.10.2018 01:00:00 (CEST)Lille, France (7015): reduced air pressure: 18.10.2018 01:00:00 - 24.10.2018 01:00:00 (CEST)Lille, France (7015): visibility: 18.10.2018 01:00:00 - 24.10.2018 01:00:00 (CEST)Lille, France (7015): Quantités de précipitations: 18.10.2018 01:00:00 - 24.10.2018 01:00:00 (CEST)
Date & Time tt [°C] td [°C] tt 5cm [°C] tt -20cm [°C] tt -100cm [°C] ff [km/h] ff [knt] fx [km/h] fx [knt] dd ppp [hPa] vv [km] rr [mm]
24.10.2018 01:00:00 10,5 8,3 9,4 11,9 15,2 13 7 17 9 W 1027,7 31 0,0
24.10.2018 00:00:00 9,9 7,7 8,3 12,1 15,2 14 7 19 10 W 1027,9 29 0,0
23.10.2018 23:00:00 9,9 7,1 8,9 12,3 15,3 16 8 19 10 W 1028,0 30 0,0
23.10.2018 22:00:00 10,4 6,9 9,3 12,5 15,2 14 8 26 14 W 1028,0 32 0,0
23.10.2018 21:00:00 10,7 6,4 9,4 12,7 15,2 15 8 20 11 W 1027,9 36 0,0
23.10.2018 20:00:00 11,9 6,0 10,0 12,9 15,3 16 9 23 13 W 1027,8 51 0,0
23.10.2018 19:00:00 13,4 5,5 12,2 13,0 15,3 17 9 29 16 W 1027,3 56 0,0
23.10.2018 18:00:00 14,7 5,5 16,0 13,0 15,3 19 10 35 19 WNW 1027,1 20 0,0
23.10.2018 17:00:00 15,8 4,8 18,1 12,9 15,3 23 12 37 20 WNW 1027,7 28 0,0
23.10.2018 16:00:00 16,3 4,0 19,5 12,6 15,3 28 15 43 23 W 1027,5 20 0,0
23.10.2018 15:00:00 16,3 4,3 19,3 12,1 15,3 27 14 41 22 W 1027,3 21 0,0
23.10.2018 14:00:00 15,4 5,0 17,7 11,6 15,3 26 14 39 21 W 1028,3 22 0,0
23.10.2018 13:00:00 13,9 5,8 13,3 11,2 15,3 27 15 42 23 W 1029,2 24 0,0
23.10.2018 12:00:00 12,3 7,2 11,5 10,9 15,3 21 11 31 17 WSW 1029,3 22 0,0
23.10.2018 11:00:00 10,5 7,2 8,8 10,6 15,3 17 9 24 13 WSW 1030,0 34 0,0
23.10.2018 10:00:00 8,5 6,1 7,4 10,4 15,3 13 7 21 11 WSW 1030,6 30 0,0
23.10.2018 09:00:00 7,7 5,2 6,2 10,4 15,3 13 7 23 13 SW 1031,1 27 0,0
23.10.2018 08:00:00 6,9 4,6 4,9 10,5 15,3 18 10 23 13 SW 1030,9 27 0,0
23.10.2018 07:00:00 6,1 4,3 4,1 10,5 15,3 13 7 18 10 SW 1031,8 26 0,0
23.10.2018 06:00:00 4,9 3,7 2,3 10,6 15,3 8 5 14 8 SW 1032,5 16 0,0
23.10.2018 05:00:00 4,3 2,8 2,4 10,7 15,3 11 6 13 7 WSW 1032,9 15 0,0
23.10.2018 04:00:00 4,7 4,0 1,3 10,9 15,4 13 7 14 7 WSW 1033,7 13 0,0
23.10.2018 03:00:00 4,7 3,5 1,5 11,2 15,4 5 3 13 7 SW 1034,7 2,0 0,0
23.10.2018 02:00:00 4,6 3,3 0,7 11,5 15,4 8 4 12 6 W 1035,3 18 0,0
23.10.2018 01:00:00 6,0 4,0 2,3 11,7 15,4 8 4 15 8 SW 1035,1 19 0,0
23.10.2018 00:00:00 6,1 3,3 2,3 12,0 15,4 8 5 14 8 NW 1036,1 25 0,0
22.10.2018 23:00:00 7,3 4,1 4,3 12,4 15,4 7 4 14 8 WNW 1035,9 31 0,0
22.10.2018 22:00:00 9,3 4,5 6,1 12,7 15,4 11 6 16 9 NNW 1035,9 37 0,0
22.10.2018 21:00:00 10,0 5,0 6,8 13,0 15,4 11 6 18 10 NNW 1035,7 36 0,0
22.10.2018 20:00:00 10,7 4,6 8,2 13,4 15,4 11 6 19 10 NNW 1035,4 45 0,0
22.10.2018 19:00:00 12,0 4,7 10,4 13,6 15,4 15 8 34 18 N 1034,9 50 0,0
22.10.2018 18:00:00 13,4 5,0 14,3 13,8 15,4 20 11 35 19 N 1034,6 29 0,0
22.10.2018 17:00:00 14,7 5,5 16,5 13,9 15,4 19 10 38 21 NNW 1033,8 18 0,0
22.10.2018 16:00:00 15,0 6,0 15,9 13,8 15,4 26 14 41 22 N 1034,1 33 0,0
22.10.2018 15:00:00 15,7 6,1 16,3 13,6 15,4 23 12 37 20 N 1033,8 26 0,0
22.10.2018 14:00:00 14,8 6,6 15,6 13,5 15,4 23 12 37 20 N 1033,5 28 0,0
22.10.2018 13:00:00 14,9 7,9 15,4 13,3 15,4 22 12 43 23 NNE 1033,7 40 0,0
22.10.2018 12:00:00 13,9 7,2 13,8 13,1 15,4 22 12 40 22 N 1033,6 36 0,0
22.10.2018 11:00:00 13,5 9,3 13,0 13,0 15,4 20 11 33 18 N 1033,1 27 0,0
22.10.2018 10:00:00 12,8 10,5 12,3 12,9 15,4 19 11 34 19 N 1032,4 33 0,0
22.10.2018 09:00:00 12,5 11,4 12,2 12,8 15,5 26 14 47 26 N 1031,4 16 0,2
22.10.2018 08:00:00 12,8 12,3 12,6 12,7 15,5 18 10 35 19 N 1030,2 2,1 0,2
22.10.2018 07:00:00 13,2 12,4 13,0 12,5 15,5 18 10 34 18 N 1029,5 11 0,0
22.10.2018 06:00:00 13,4 13,1 12,5 12,3 15,5 18 10 26 14 N 1028,8 2,3 0,2
22.10.2018 05:00:00 12,8 12,5 9,8 12,1 15,5 14 8 23 12 N 1028,4 1,6 0,0
22.10.2018 04:00:00 9,7 8,8 7,9 12,0 15,5 10 6 14 8 WNW 1028,3 3,0 0,0
22.10.2018 03:00:00 9,2 8,1 5,9 12,1 15,5 3 2 9 5 W 1028,1 3,5 0,0
22.10.2018 02:00:00 8,5 7,1 5,9 12,3 15,5 9 5 13 7 NW 1028,1 3,8 0,0
22.10.2018 01:00:00 9,4 7,7 6,0 12,5 15,5 4 2 9 5 NW 1027,7 5 0,0
22.10.2018 00:00:00 9,5 7,4 5,9 12,7 15,5 5 3 14 8 W 1027,7 7 0,0
21.10.2018 23:00:00 9,8 7,6 5,4 12,9 15,5 0 0 10 5 N 1027,5 8 0,0
21.10.2018 22:00:00 9,9 7,7 5,4 13,3 15,5 0 0 5 3 N 1027,2 8 0,0
21.10.2018 21:00:00 11,1 7,8 6,6 13,6 15,5 2 1 4 2 E 1026,8 11 0,0
21.10.2018 20:00:00 12,5 8,2 7,5 13,9 15,6 0 0 6 3 N 1026,6 11 0,0
21.10.2018 19:00:00 14,5 8,0 9,8 14,2 15,6 4 2 6 3 W 1026,7 13 0,0
21.10.2018 18:00:00 17,7 8,3 19,7 14,2 15,6 2 1 6 3 S 1026,5 13 0,0
21.10.2018 17:00:00 19,0 7,7 23,3 14,0 15,6 3 2 10 5 E 1026,8 20 0,0
21.10.2018 16:00:00 19,2 7,9 23,0 13,6 15,6 5 3 10 6 E 1027,2 15 0,0
21.10.2018 15:00:00 18,5 7,9 23,3 12,9 15,6 4 2 11 6 ENE 1027,5 15 0,0
21.10.2018 14:00:00 17,6 7,9 20,1 12,3 15,6 6 4 13 7 SE 1027,9 11 0,0
21.10.2018 13:00:00 16,4 7,6 19,7 11,6 15,6 5 3 16 8 SE 1028,6 10 0,0
21.10.2018 12:00:00 14,6 6,9 16,7 11,1 15,6 4 2 9 5 ESE 1029,1 9 0,0
21.10.2018 11:00:00 11,8 7,5 11,9 10,9 15,6 4 2 9 5 E 1029,5 6 0,0
21.10.2018 10:00:00 8,0 7,2 4,8 10,8 15,6 3 1 7 4 ENE 1029,5 4,5 0,0
21.10.2018 09:00:00 5,1 4,7 2,5 10,8 15,6 2 1 8 4 E 1029,4 3,0 0,0
21.10.2018 08:00:00 5,1 4,4 3,0 10,9 15,6 2 1 6 3 SW 1029,1 3,5 0,0
21.10.2018 07:00:00 5,0 4,6 2,0 11,0 15,6 3 2 6 3 N 1029,3 4,6 0,0
21.10.2018 06:00:00 4,4 3,7 1,9 11,2 15,7 5 3 9 5 NNE 1029,7 4,2 0,0
21.10.2018 05:00:00 5,4 4,7 1,9 11,3 15,7 0 0 4 2 N 1029,7 0,8 0,0
21.10.2018 04:00:00 5,2 4,2 2,3 11,5 15,7 3 1 5 3 S 1030,3 2,6 0,0
21.10.2018 03:00:00 5,7 4,8 2,1 11,7 15,7 2 1 4 2 N 1030,6 3,2 0,0
21.10.2018 02:00:00 6,1 5,4 2,5 11,9 15,7 3 1 5 3 NNE 1030,9 6 0,0
21.10.2018 01:00:00 6,4 5,2 3,0 12,2 15,7 3 2 4 2 SSE 1031,2 7 0,0
21.10.2018 00:00:00 7,4 5,5 3,0 12,4 15,7 0 0 4 2 N 1031,3 9 0,0
20.10.2018 23:00:00 8,0 5,8 3,8 12,7 15,7 2 1 4 2 NE 1031,3 11 0,0
20.10.2018 22:00:00 9,7 5,9 6,0 12,9 15,7 3 2 10 5 E 1031,2 14 0,0
20.10.2018 21:00:00 10,0 6,3 4,1 13,3 15,7 10 5 18 10 NNE 1031,3 17 0,0
20.10.2018 20:00:00 10,5 6,4 4,2 13,7 15,7 6 3 11 6 N 1031,3 26 0,0
20.10.2018 19:00:00 12,2 6,2 6,8 14,0 15,7 5 3 12 6 NE 1031,0 29 0,0
20.10.2018 18:00:00 14,6 6,4 15,2 14,1 15,7 7 4 16 8 ENE 1030,5 16 0,0
20.10.2018 17:00:00 15,8 6,2 18,2 13,9 15,7 10 5 18 10 NE 1030,7 28 0,0
20.10.2018 16:00:00 15,8 7,0 18,0 13,6 15,7 11 6 21 11 NE 1031,1 16 0,0
20.10.2018 15:00:00 15,5 6,5 19,6 13,2 15,7 10 5 19 10 NE 1031,4 14 0,0
20.10.2018 14:00:00 14,5 6,3 18,7 12,8 15,7 7 4 16 9 NNE 1032,0 14 0,0
20.10.2018 13:00:00 13,4 6,9 14,2 12,4 15,7 6 4 12 7 NE 1032,4 8 0,0
20.10.2018 12:00:00 12,3 7,4 14,1 11,9 15,7 7 4 11 6 ENE 1032,3 11 0,0
20.10.2018 11:00:00 10,7 7,8 11,3 11,5 15,7 4 2 8 5 ENE 1032,2 6 0,0
20.10.2018 10:00:00 8,8 8,5 4,1 11,4 15,8 0 0 9 5 N 1031,8 3,0 0,0
20.10.2018 09:00:00 6,8 6,5 1,7 11,4 15,7 2 1 6 3 NE 1031,1 1,9 0,0
20.10.2018 08:00:00 5,4 5,0 0,6 11,7 15,8 2 1 5 3 NE 1030,6 3,4 0,2
20.10.2018 07:00:00 5,1 4,4 1,3 11,9 15,8 2 1 4 2 WSW 1030,0 2,9 0,0
20.10.2018 06:00:00 5,6 5,2 1,5 12,2 15,8 2 1 6 4 WNW 1029,7 0,8 0,0
20.10.2018 05:00:00 5,9 5,2 2,1 12,4 15,8 5 3 8 4 WNW 1029,3 3,2 0,0
20.10.2018 04:00:00 6,5 5,4 2,5 12,7 15,8 4 2 7 4 NW 1029,0 0,4 0,0
20.10.2018 03:00:00 7,9 6,5 6,1 12,9 15,8 5 3 17 9 N 1028,7 7 0,0
20.10.2018 02:00:00 8,7 7,1 6,8 13,1 15,8 11 6 18 10 NNW 1028,6 11 0,0
20.10.2018 01:00:00 9,0 7,3 7,4 13,4 15,8 11 6 19 11 N 1027,9 9 0,0
20.10.2018 00:00:00 9,5 7,6 7,1 13,6 15,8 12 6 16 9 N 1028,0 10 0,0
19.10.2018 23:00:00 10,2 7,8 8,8 13,9 15,8 13 7 22 12 N 1027,9 12 0,0
19.10.2018 22:00:00 11,0 8,2 9,6 14,2 15,8 14 8 29 15 N 1027,4 15 0,0
19.10.2018 21:00:00 11,9 8,4 10,1 14,5 15,8 13 7 19 11 N 1026,8 14 0,0
19.10.2018 20:00:00 12,8 8,9 11,4 14,8 15,8 14 7 26 14 NNW 1026,0 20 0,0
19.10.2018 19:00:00 14,3 8,7 13,1 15,0 15,8 14 7 24 13 NNW 1025,3 28 0,0
19.10.2018 18:00:00 15,7 8,2 15,7 15,0 15,8 16 9 29 15 N 1024,9 33 0,0
19.10.2018 17:00:00 16,3 8,5 16,5 15,0 15,8 13 7 27 15 NNW 1024,4 20 0,0
19.10.2018 16:00:00 17,1 9,8 17,4 14,7 15,8 16 9 26 14 N 1024,2 11 0,0
19.10.2018 15:00:00 17,4 10,3 18,7 14,3 15,8 11 6 26 14 NNE 1024,3 9 0,0
19.10.2018 14:00:00 16,2 10,1 20,0 13,8 15,8 13 7 24 13 N 1024,7 7 0,0
19.10.2018 13:00:00 15,7 10,2 18,9 13,5 15,9 12 6 22 12 NE 1024,9 7 0,0
19.10.2018 12:00:00 14,3 9,7 16,6 13,2 15,8 12 7 20 11 NE 1025,1 9 0,0
19.10.2018 11:00:00 12,9 9,5 14,1 12,9 15,8 13 7 24 13 NNE 1025,0 14 0,0
19.10.2018 10:00:00 11,4 8,8 10,8 12,8 15,8 14 8 31 17 NE 1024,8 16 0,0
19.10.2018 09:00:00 10,8 8,6 9,5 12,8 15,9 11 6 24 13 NE 1024,5 14 0,0
19.10.2018 08:00:00 9,9 8,2 9,2 12,9 15,8 13 7 17 9 NNE 1024,3 16 0,0
19.10.2018 07:00:00 9,8 8,1 8,8 13,0 15,9 12 7 17 9 NNE 1024,2 18 0,0
19.10.2018 06:00:00 9,9 8,0 8,9 13,2 15,9 11 6 18 10 NNE 1024,2 20 0,0
19.10.2018 05:00:00 10,1 7,9 9,0 13,3 15,9 14 8 21 11 NNE 1024,2 29 0,0
19.10.2018 04:00:00 10,0 7,9 8,5 13,5 15,9 13 7 18 10 N 1024,2 4,2 0,0
19.10.2018 03:00:00 10,2 8,0 8,7 13,6 15,9 10 6 16 8 NNE 1024,3 36 0,0
19.10.2018 02:00:00 10,3 7,9 8,4 13,9 15,9 11 6 14 8 N 1024,4 37 0,0
19.10.2018 01:00:00 11,0 8,0 9,7 14,1 15,9 10 5 18 10 NNE 1024,4 37 0,0
19.10.2018 00:00:00 12,1 8,2 10,7 14,3 15,9 13 7 19 11 NNE 1024,7 43 0,0
18.10.2018 23:00:00 12,4 8,7 11,2 14,5 15,9 13 7 24 13 NNE 1024,8 42 0,0
18.10.2018 22:00:00 12,7 9,0 11,2 14,7 15,9 14 8 25 14 NNE 1024,7 10 0,0
18.10.2018 21:00:00 13,5 9,3 12,1 15,0 15,9 15 8 27 15 N 1024,4 33 0,0
18.10.2018 20:00:00 14,9 9,5 14,2 15,1 15,9 19 10 29 15 N 1024,1 41 0,0
18.10.2018 19:00:00 15,2 9,8 14,9 15,2 15,9 18 10 52 28 NNE 1023,9 47 0,0
18.10.2018 18:00:00 15,5 9,6 15,4 15,3 15,8 21 12 33 18 NNE 1023,7 48 0,0
18.10.2018 17:00:00 16,1 10,0 16,8 15,3 15,9 22 12 42 23 NNE 1023,8 40 0,0
18.10.2018 16:00:00 16,3 9,7 17,1 15,1 15,9 24 13 37 20 N 1024,0 33 0,0
18.10.2018 15:00:00 16,5 11,0 16,4 14,8 15,9 21 11 33 18 NNE 1024,2 16 0,0
18.10.2018 14:00:00 15,7 10,9 16,4 14,5 15,9 23 12 48 26 NNE 1024,5 16 0,0
18.10.2018 13:00:00 15,8 11,6 16,5 14,2 15,9 22 12 39 21 NNE 1024,6 8 0,0
18.10.2018 12:00:00 15,7 11,5 17,1 13,8 15,9 23 12 35 19 NE 1024,6 9 0,0
18.10.2018 11:00:00 14,4 11,5 15,1 13,6 15,9 20 11 31 17 NNE 1024,5 6 0,0
18.10.2018 10:00:00 13,1 11,0 11,3 13,5 15,9 17 9 24 13 NNE 1024,1 8 0,0
18.10.2018 09:00:00 11,4 10,3 9,2 13,6 15,9 15 8 22 12 N 1023,7 4,1 0,0
18.10.2018 08:00:00 10,7 9,8 9,3 13,7 15,9 8 5 14 8 N 1023,4 3,5 0,0
18.10.2018 07:00:00 10,9 10,1 9,3 13,8 15,9 10 5 19 11 N 1023,3 3,9 0,0
18.10.2018 06:00:00 10,7 9,8 9,5 14,0 15,9 10 5 17 9 NNE 1023,0 4,8 0,0
18.10.2018 05:00:00 11,0 10,1 9,4 14,1 15,9 11 6 16 9 N 1022,9 4,2 0,0
18.10.2018 04:00:00 11,5 10,2 10,6 14,3 15,9 10 6 15 8 N 1022,9 4,2 0,0
18.10.2018 03:00:00 11,9 10,5 11,2 14,4 15,9 10 5 16 8 N 1022,8 6 0,0
18.10.2018 02:00:00 12,1 10,7 10,4 14,5 15,9 6 3 13 7 N 1022,6 7 0,0
18.10.2018 01:00:00 12,3 10,5 10,8 14,7 15,9 9 5 15 8 N 1022,5 9 0,0

tt = Température de l'air
td = dewpoint
tt 5cm = Température de l'air 5cm
tt -20cm = Température de l'air -20cm
tt -100cm = Température de l'air -100cm
ff = Vitesse du vent
fx = gusts
dd = Direction du vent
ppp = reduced air pressure
vv = visibility
rr = Quantités de précipitations

stations d'obs. à proximité